Texarkana, AR

2:03 AM CST on February 08, 2016 (GMT -0600)
Texarkana Regional-Webb

Weather History for KTXK - October, 2012

Change the Weather History Date:

Tuesday, October 9, 2012

  Actual Average Record
Temperature  
Mean Temperature 57 °F 67 °F  
Max Temperature 73 °F 79 °F 97 °F (1928)
Min Temperature 40 °F 55 °F 32 °F (1917)
Degree Days  
Heating Degree Days 8 2  
Month to date heating degree days 46 15  
Since 1 July heating degree days 47 26  
Cooling Degree Days 0 4  
Month to date cooling degree days 26 43  
Year to date cooling degree days 2693 2137  
Growing Degree Days 6 (Base 50)    
Moisture  
Dew Point 52 °F    
Average Humidity 79    
Maximum Humidity 100    
Minimum Humidity 57    
Precipitation  
Precipitation 0.00 in 0.15 in 2.68 in (1990)
Month to date precipitation 0.10 1.26  
Year to date precipitation 24.89 36.11  
Snow  
Snow 0.00 in - - ()
Month to date snowfall 0.0  
Since 1 July snowfall 0.0  
Since 1 September snowfall 0.0  
Snow Depth 0.00 in    
Sea Level Pressure  
Sea Level Pressure 30.04 in    
Wind  
Wind Speed 5 mph (South)    
Max Wind Speed 16 mph    
Max Gust Speed 20 mph    
Visibility 10 miles    
Events      
T = Trace of Precipitation, MM = Missing Value Source: NWS Daily Summary

Daily Weather History Graph

Daily Weather History Graph

Search for Another Location

Airport or City:

Trip Planner

Search our weather history database for the weather conditions in past years. The results will help you decide how hot, cold, wet, or windy it might be!

Date:

Astronomy

Oct. 09, 2012 Rise Set
Actual Time 7:16 AM CDT 6:49 PM CDT
Civil Twilight 6:51 AM CDT 7:14 PM CDT
Nautical Twilight 6:22 AM CDT 7:42 PM CDT
Astronomical Twilight 5:53 AM CDT 8:11 PM CDT
Moon 1:10 AM CDT (10/9) 3:01 PM CDT (10/9)
Length of Visible Light 12h 22m
Length of Day
11h 32m
Last Quarter, 36% of the Moon is Illuminated
Oct 9
Last Quarter
Oct 15
New
Oct 21
First Quarter
Oct 29
Full
Nov 6
Last Quarter

Hourly Weather History & Observations

Time (CDT) Temp. Windchill Dew Point Humidity Pressure Visibility Wind Dir Wind Speed Gust Speed Precip Events Conditions
12:53 AM 48.9 °F - 43.0 °F 80% 30.12 in 10.0 mi SSE 6.9 mph - N/A   Clear
1:53 AM 46.9 °F - 43.0 °F 86% 30.13 in 10.0 mi SSW 3.5 mph - N/A   Clear
3:53 AM 46.0 °F 44.8 °F 44.1 °F 93% 30.11 in 10.0 mi South 3.5 mph - N/A   Clear
4:53 AM 44.1 °F - 42.1 °F 93% 30.10 in 10.0 mi Calm Calm - N/A   Clear
5:53 AM 42.1 °F - 41.0 °F 96% 30.11 in 7.0 mi Calm Calm - N/A   Clear
6:53 AM 39.9 °F 37.8 °F 39.9 °F 100% 30.11 in 6.0 mi East 3.5 mph - N/A   Clear
7:53 AM 45.0 °F 40.6 °F 44.1 °F 97% 30.11 in 8.0 mi SSE 8.1 mph - N/A   Clear
8:53 AM 51.1 °F - 46.0 °F 83% 30.13 in 10.0 mi South 11.5 mph - N/A   Clear
9:53 AM 55.9 °F - 48.0 °F 75% 30.12 in 10.0 mi South 5.8 mph - N/A   Clear
10:53 AM 57.9 °F - 48.9 °F 72% 30.11 in 10.0 mi South 6.9 mph - N/A   Overcast
11:53 AM 61.0 °F - 50.0 °F 67% 30.09 in 10.0 mi SSE 5.8 mph - N/A   Overcast
12:53 PM 64.9 °F - 52.0 °F 63% 30.05 in 10.0 mi South 6.9 mph - N/A   Overcast
1:53 PM 68.0 °F - 54.0 °F 61% 30.01 in 10.0 mi South 4.6 mph - N/A   Overcast
2:53 PM 70.0 °F - 55.0 °F 59% 29.97 in 10.0 mi South 12.7 mph - N/A   Overcast
3:53 PM 73.0 °F - 57.0 °F 57% 29.94 in 10.0 mi SSE 15.0 mph 18.4 mph N/A   Mostly Cloudy
4:53 PM 71.1 °F - 57.9 °F 63% 29.93 in 10.0 mi South 9.2 mph - N/A   Overcast
5:53 PM 71.1 °F - 59.0 °F 66% 29.92 in 10.0 mi South 9.2 mph - N/A   Overcast
6:53 PM 70.0 °F - 60.1 °F 71% 29.93 in 10.0 mi South 4.6 mph - N/A   Overcast
7:53 PM 69.1 °F - 60.1 °F 73% 29.95 in 10.0 mi South 3.5 mph - N/A   Overcast
8:53 PM 69.1 °F - 61.0 °F 75% 29.98 in 10.0 mi Calm Calm - N/A   Overcast
9:53 PM 66.9 °F - 62.1 °F 84% 30.00 in 10.0 mi Calm Calm - N/A   Overcast
10:53 PM 66.9 °F - 61.0 °F 81% 30.02 in 10.0 mi East 3.5 mph - N/A   Overcast
11:53 PM 66.0 °F - 62.1 °F 87% 30.03 in 10.0 mi Calm Calm - N/A   Overcast